EUTELSAT 9B

Last updated on Thu Oct 30 2025 00:02:50 GMT+0000 (Coordinated Universal Time)

1 41310U 16005A 25302.33015697 .00000071 00000+0 00000+0 0 9993 2 41310 0.0538 66.0939 0003764 175.2845 284.4250 1.00268826 35806
UTC large
Height (km)
Speed (km/s)
/
Latitude / Longitude
Inclination (degrees)
Orbital Period (minutes)
Azimuth
Elevation
Range (km)
Doppler Factor

Next 0 passes for location: London (51.5072 / 0.1276)

Sorry there are no passes over London.